[[{"header":{"parameterUnit":"m.s-1","parameterCategory":2,"la1":30.2991,"la2":30.254,"lo1":-89.0895,"lo2":-89.0444,"dy":0.0017,"dx":0.0017,"nx":28,"ny":28,"refTime":"2025-03-20T03:00:00:Z","depth":"0","parameterNumber":2,"parameterNumberName":"U-component_of_CURRENTS"},"data":[0,0,0,0,0,0,0,0,0,0,0,0,0,0,0,0,0,0,0,0,0,0,0,0,0,0,0,0,0,0,0,0,0,0,0,0,0,0,0,0,0,0,0,0,0,0,0,0,0,0,0,0,0,0,0,0,0,0,0.3107,0.3108,0,0.3052,0.305,0.3048,0.2964,0.2964,0.2964,0.2964,0.2791,0.2786,0.2781,0,0,0,0,0,0,0,0,0,0,0,0,0,0.3005,0.3007,0.3107,0.3108,0.3109,0.3053,0.305,0.3048,0.2964,0.2964,0.2964,0.2964,0.2792,0.2787,0.2781,0,0,0,0,0,0,0,0,0,0,0,0,0,0.2993,0.3007,0.3107,0.3073,0.3071,0.3053,0.305,0.3047,0.2964,0.2964,0.2964,0.2964,0.2794,0.2787,0.278,0.2733,0,0,0.2758,0.2755,0,0,0,0,0,0,0,0,0.2994,0.2995,0.3077,0.3076,0.3073,0.3031,0.2952,0.2942,0.2964,0.2986,0.2964,0.2964,0.2871,0.2858,0.2824,0.2725,0.2718,0.2758,0.2754,0.2751,0.2749,0,0,0,0,0,0,0,0.2995,0.2996,0.3067,0.3079,0.3076,0.3017,0.3014,0.2948,0.2912,0.2984,0.2982,0.3004,0.2867,0.2831,0.2819,0.2715,0.2758,0.2752,0.2747,0.2745,0.2673,0.2675,0,0,0,0,0,0,0.3045,0.2998,0.3069,0.3068,0.3053,0.302,0.3016,0.303,0.2916,0.2905,0.3004,0.3001,0.2843,0.2827,0.2813,0.2798,0.2751,0.2744,0.274,0.2671,0.2673,0.2676,0,0,0,0,0,0,0.3042,0.3051,0.3072,0.3045,0.3046,0.3025,0.3038,0.3029,0.3006,0.2936,0.2918,0.2995,0.2842,0.2823,0.2753,0.2789,0.2741,0.2734,0.2668,0.2671,0.2675,0.2737,0,0,0,0,0,0,0.3039,0.305,0.3059,0.3049,0.3051,0.3063,0.304,0.3028,0.3028,0.3022,0.2922,0.2905,0.2841,0.2764,0.2746,0.2778,0.2729,0.2665,0.2669,0.2674,0.2732,0.2742,0.2751,0,0,0,0,0,0.3035,0.3044,0.3059,0.3068,0.3069,0.3065,0.3056,0.3029,0.3028,0.3008,0.2945,0.2909,0.2782,0.2758,0.2737,0.2768,0.2663,0.2668,0.2673,0.2728,0.274,0.2751,0,0,0,0,0,0,0.2993,0.3038,0.3054,0.3073,0.308,0.3057,0.3042,0.3042,0.2977,0.2968,0.2896,0.2873,0.284,0.2799,0.2775,0.2771,0.2734,0.2735,0.2784,0.2794,0.2804,0.2851,0.2723,0,0,0,0,0,0.3001,0.3022,0.3051,0.3067,0.3072,0.3064,0.3059,0.3051,0.3013,0.2984,0.292,0.2874,0.2844,0.2813,0.2764,0.2731,0.2751,0.2757,0.2767,0.2774,0.2805,0.2891,0.2911,0.2693,0.2693,0.2693,0,0,0.2996,0.3022,0.3036,0.3061,0.3055,0.3041,0.3054,0.3053,0.3054,0.2975,0.2921,0.2887,0.2844,0.2813,0.28,0.278,0.284,0.2781,0.2788,0.2814,0.2898,0.292,0.2939,0.2697,0.2696,0.2696,0,0,0.297,0.3015,0.3007,0.3015,0.3036,0.3034,0.3048,0.3033,0.3037,0.2996,0.2969,0.2962,0.287,0.2869,0.2857,0.2897,0.2887,0.2894,0.2968,0.305,0.3069,0.3086,0.3103,0.3121,0.2899,0.2899,0.2899,0,0.2957,0.2976,0.3001,0.2986,0.3019,0.3036,0.3041,0.3031,0.2997,0.305,0.2987,0.2972,0.2909,0.2956,0.296,0.2919,0.2947,0.2916,0.3063,0.308,0.3097,0.311,0.313,0.2903,0.2902,0.2902,0.2901,0,0.2931,0.2938,0.2936,0.2939,0.2956,0.2976,0.3002,0.3017,0.3034,0.3064,0.3119,0.3042,0.3057,0.3044,0.299,0.3099,0.3072,0.3063,0.3031,0.3123,0.313,0.3149,0.2908,0.2906,0.2905,0.2904,0,0,0.2929,0.2926,0.2926,0.2943,0.2964,0.2983,0.3011,0.3098,0.3172,0.3147,0.3255,0.3204,0.3223,0.3215,0.3181,0.3234,0.3326,0.3196,0.3198,0.3207,0.3478,0.3502,0.3523,0.3351,0.3355,0.3359,0.3423,0,0.2914,0.2912,0.2918,0.2927,0.2944,0.3001,0.304,0.312,0.3184,0.3269,0.3317,0.3357,0.3275,0.3285,0.3334,0.3332,0.3386,0.3307,0.3394,0.3396,0.3404,0.3552,0.3681,0.3756,0.3441,0.3444,0.3447,0,0.2867,0.2912,0.2924,0.2993,0.3012,0.3013,0.3173,0.3209,0.3356,0.3419,0.3507,0.3524,0.3589,0.3504,0.3579,0.3535,0.3524,0.3517,0.3519,0.3544,0.346,0.3624,0.3802,0.3878,0.3475,0.3473,0.3471,0,0.2867,0.2898,0.2938,0.2956,0.3026,0.3081,0.3141,0.3276,0.336,0.3525,0.3601,0.3692,0.3705,0.3756,0.3698,0.3663,0.3782,0.373,0.3746,0.3743,0.3876,0.3879,0.4145,0.3832,0.3832,0.3832,0.3831,0,0.284,0.2862,0.2944,0.2967,0.3074,0.3112,0.3238,0.3322,0.3459,0.3568,0.367,0.3745,0.3773,0.3821,0.3793,0.3829,0.3859,0.381,0.3802,0.3895,0.3899,0.3984,0.3974,0.3834,0.3833,0.3833,0.3833,0,0.2768,0.2805,0.2862,0.2994,0.3042,0.3116,0.3261,0.3342,0.3484,0.3621,0.3671,0.3795,0.3874,0.3896,0.3946,0.3927,0.395,0.3968,0.4037,0.404,0.4141,0.4127,0.4026,0.3919,0.4041,0.4042,0.4044,0,0.2724,0.2745,0.2887,0.2929,0.2975,0.3106,0.3181,0.3337,0.3411,0.3634,0.3677,0.3819,0.3924,0.4038,0.4084,0.4134,0.3998,0.4223,0.42,0.4229,0.4207,0.3885,0.3777,0.437,0.4374,0.4377,0.438,0,0.2697,0.273,0.2797,0.2887,0.2955,0.3058,0.3171,0.3232,0.3399,0.353,0.3662,0.3789,0.4011,0.4167,0.4268,0.4295,0.419,0.4287,0.4353,0.4549,0.4187,0.4054,0.4172,0.4408,0.4405,0.4403,0.4402,0.4401,0.2682,0.2706,0.2763,0.2841,0.2898,0.2935,0.2979,0.3105,0.3213,0.3402,0.3579,0.3851,0.4268,0.4485,0.4444,0.4642,0.4347,0.4678,0.4668,0.4337,0.4238,0.4383,0.4584,0.4582,0.4581,0.4579,0.4578,0,0.2622,0.2648,0.2715,0.2759,0.2746,0.2821,0.2902,0.2907,0.2982,0.3354,0.3542,0.4137,0.4494,0.4765,0.5142,0.5122,0.4772,0.5046,0.4732,0.4608,0.487,0.4904,0.5144,0.5144,0.5144,0.5144,0.5144,0.5144,0.2588,0.2573,0.2605,0.2579,0.2596,0.2548,0.2554,0.2611,0.2832,0.3222,0.366,0.4034,0.4736,0.5444,0.5703,0.5561,0.5202,0.5027,0.4804,0.5216,0.5181,0.5148,0.5184,0.5479,0.5479,0.4437,0.4431,0.4427]},{"header":{"parameterUnit":"m.s-1","parameterCategory":2,"la1":30.2991,"la2":30.254,"lo1":-89.0895,"lo2":-89.0444,"dy":0.0017,"dx":0.0017,"nx":28,"ny":28,"refTime":"2025-03-20T03:00:00:Z","depth":"0","parameterNumber":3,"parameterNumberName":"V-component_of_CURRENTS"},"data":[0,0,0,0,0,0,0,0,0,0,0,0,0,0,0,0,0,0,0,0,0,0,0,0,0,0,0,0,0,0,0,0,0,0,0,0,0,0,0,0,0,0,0,0,0,0,0,0,0,0,0,0,0,0,0,0,0,0,-0.0564,-0.0565,0,-0.0555,-0.0554,-0.0553,-0.0566,-0.0567,-0.0569,-0.057,-0.0526,-0.0523,-0.0521,0,0,0,0,0,0,0,0,0,0,0,0,0,-0.0506,-0.0507,-0.0564,-0.0565,-0.0565,-0.0555,-0.0554,-0.0553,-0.0566,-0.0567,-0.0569,-0.057,-0.0526,-0.0524,-0.0521,0,0,0,0,0,0,0,0,0,0,0,0,0,-0.0509,-0.0507,-0.0564,-0.0577,-0.0579,-0.0555,-0.0554,-0.0553,-0.0566,-0.0567,-0.0569,-0.0571,-0.0527,-0.0524,-0.052,-0.046,0,0,-0.0509,-0.0508,0,0,0,0,0,0,0,0,-0.0509,-0.051,-0.0575,-0.0576,-0.0578,-0.0571,-0.0518,-0.0523,-0.0565,-0.0561,-0.057,-0.0572,-0.0542,-0.0537,-0.0519,-0.0458,-0.0456,-0.0509,-0.0507,-0.0505,-0.0504,0,0,0,0,0,0,0,-0.0509,-0.051,-0.0551,-0.0575,-0.0578,-0.0554,-0.0556,-0.0518,-0.0534,-0.0562,-0.0565,-0.0577,-0.0542,-0.0523,-0.0518,-0.0456,-0.0509,-0.0506,-0.0504,-0.0503,-0.0456,-0.0457,0,0,0,0,0,0,-0.053,-0.051,-0.0552,-0.0552,-0.0557,-0.0555,-0.0557,-0.0564,-0.0535,-0.0535,-0.0576,-0.0578,-0.0528,-0.0522,-0.0517,-0.048,-0.0505,-0.0502,-0.05,-0.0455,-0.0456,-0.0457,0,0,0,0,0,0,-0.0529,-0.0534,-0.0552,-0.0538,-0.054,-0.0555,-0.0562,-0.0563,-0.0553,-0.0547,-0.0545,-0.0567,-0.0529,-0.0522,-0.0484,-0.0478,-0.0501,-0.0497,-0.0454,-0.0456,-0.0457,-0.0384,0,0,0,0,0,0,-0.0527,-0.0533,-0.0532,-0.054,-0.0542,-0.0525,-0.0562,-0.0562,-0.0561,-0.0564,-0.0538,-0.0536,-0.053,-0.0489,-0.048,-0.0473,-0.0495,-0.0453,-0.0455,-0.0457,-0.0385,-0.0383,-0.038,0,0,0,0,0,-0.0525,-0.0512,-0.0531,-0.0537,-0.0545,-0.0525,-0.0521,-0.0533,-0.0559,-0.0533,-0.0531,-0.0537,-0.0497,-0.0485,-0.0475,-0.0467,-0.0452,-0.0454,-0.0456,-0.0386,-0.0383,-0.038,0,0,0,0,0,0,-0.0479,-0.0513,-0.0535,-0.0532,-0.0529,-0.053,-0.0506,-0.0528,-0.0504,-0.0503,-0.0512,-0.0507,-0.0482,-0.0488,-0.0476,-0.047,-0.0489,-0.0489,-0.044,-0.0437,-0.0434,-0.0417,-0.0492,0,0,0,0,0,-0.0473,-0.0476,-0.0498,-0.0493,-0.0486,-0.0497,-0.049,-0.0497,-0.0489,-0.0481,-0.0473,-0.0478,-0.0479,-0.0468,-0.0457,-0.0423,-0.0441,-0.0429,-0.0427,-0.0424,-0.041,-0.0424,-0.042,-0.0464,-0.0464,-0.0464,0,0,-0.046,-0.0476,-0.048,-0.0484,-0.0475,-0.044,-0.0493,-0.0468,-0.0454,-0.0476,-0.0436,-0.0451,-0.047,-0.0444,-0.0437,-0.0446,-0.0428,-0.0427,-0.0424,-0.041,-0.0426,-0.0421,-0.0417,-0.0465,-0.0465,-0.0465,0,0,-0.04,-0.0436,-0.04,-0.0392,-0.0384,-0.0391,-0.0388,-0.0382,-0.0391,-0.036,-0.0396,-0.0403,-0.0383,-0.04,-0.0411,-0.0389,-0.0413,-0.0409,-0.0369,-0.0383,-0.0378,-0.0375,-0.0407,-0.0407,-0.0408,-0.0408,-0.0408,0,-0.0376,-0.0349,-0.0382,-0.0334,-0.0327,-0.0369,-0.0318,-0.0323,-0.0312,-0.0318,-0.034,-0.0347,-0.0365,-0.0359,-0.0371,-0.0378,-0.0398,-0.0368,-0.0375,-0.0372,-0.0369,-0.0403,-0.0404,-0.0405,-0.0405,-0.0405,-0.0406,0,-0.0294,-0.026,-0.0231,-0.02,-0.0189,-0.0154,-0.0178,-0.0163,-0.0196,-0.0222,-0.0225,-0.0249,-0.0258,-0.0289,-0.032,-0.0323,-0.0349,-0.0364,-0.0369,-0.0359,-0.0398,-0.0399,-0.04,-0.0401,-0.0402,-0.0403,0,0,-0.0256,-0.019,-0.0176,-0.0133,-0.0123,-0.0098,-0.0076,-0.0075,-0.0053,-0.009,-0.0073,-0.0126,-0.0162,-0.018,-0.0227,-0.0258,-0.0276,-0.0303,-0.0306,-0.0313,-0.0318,-0.0364,-0.0371,-0.0286,-0.0285,-0.0285,-0.0357,0,-0.0175,-0.0073,-0.0068,0.0034,0.0086,0.0057,0.0083,0.0071,0.0049,0.0062,-0.0027,-0.0024,-0.0118,-0.0113,-0.0161,-0.0239,-0.0274,-0.0256,-0.0347,-0.035,-0.0372,-0.0372,-0.0367,-0.0433,-0.0359,-0.0359,-0.0359,0,-0.007,-0.0035,0.0068,0.0149,0.017,0.0214,0.0246,0.0272,0.0247,0.0229,0.0195,0.0132,0.0065,-0.0002,-0.0133,-0.0116,-0.021,-0.0282,-0.0287,-0.035,-0.0398,-0.0432,-0.0439,-0.0689,-0.0362,-0.0362,-0.0362,0,-0.0013,0.0089,0.0162,0.0182,0.0244,0.0282,0.0313,0.0317,0.0355,0.0342,0.0359,0.0267,0.024,0.0108,-0.0083,-0.0096,-0.0225,-0.0256,-0.0386,-0.0391,-0.0416,-0.0423,-0.065,-0.0329,-0.0329,-0.0329,-0.0329,0,0.0083,0.0157,0.0197,0.0236,0.0333,0.0349,0.0451,0.0476,0.0509,0.0571,0.0452,0.0476,0.0268,0.0152,-0.0026,-0.022,-0.0184,-0.0375,-0.0406,-0.0396,-0.04,-0.0642,-0.0822,-0.0332,-0.0331,-0.0331,-0.033,0,0.0181,0.02,0.0308,0.0358,0.0382,0.0461,0.0561,0.0643,0.0641,0.0728,0.0726,0.0634,0.0477,0.0245,0.0037,-0.0133,-0.0486,-0.0392,-0.0382,-0.0412,-0.0765,-0.0941,-0.1185,-0.1382,-0.0537,-0.0538,-0.0539,0,0.0243,0.03,0.0397,0.0465,0.0503,0.0595,0.0677,0.0717,0.0807,0.0828,0.0887,0.0751,0.0683,0.0328,0.0004,-0.0309,-0.056,-0.05,-0.0527,-0.0787,-0.1007,-0.1087,-0.1243,-0.0542,-0.0543,-0.0544,-0.0545,0,0.0353,0.0394,0.0475,0.0591,0.0694,0.0807,0.0918,0.1001,0.1054,0.11,0.1139,0.1079,0.0725,0.0418,-0.0024,-0.0259,-0.073,-0.053,-0.0791,-0.103,-0.1139,-0.1341,-0.0514,-0.0553,-0.0552,-0.0552,-0.0551,-0.0551,0.0447,0.0531,0.0628,0.0745,0.0864,0.0999,0.1121,0.1221,0.1346,0.1449,0.1365,0.136,0.0893,0.0284,-0.0139,-0.0801,-0.0838,-0.0964,-0.1156,-0.1208,-0.1413,-0.062,-0.0701,-0.0701,-0.0701,-0.0701,-0.0701,0,0.055,0.0634,0.0762,0.0916,0.1063,0.109,0.1272,0.1394,0.1548,0.1659,0.1683,0.1539,0.0881,0.0233,-0.0655,-0.1239,-0.1493,-0.1588,-0.1711,-0.1846,-0.1113,-0.1127,-0.1313,-0.1312,-0.1312,-0.1312,-0.1312,-0.1311,0.0613,0.0754,0.0801,0.1033,0.1155,0.1361,0.1477,0.1632,0.1766,0.1953,0.2042,0.2049,0.1692,-0.0086,-0.1354,-0.1752,-0.2275,-0.2378,-0.2659,-0.2157,-0.2112,-0.2069,-0.2121,-0.2512,-0.2514,-0.3281,-0.3289,-0.3295]}],[{"header":{"parameterUnit":"m.s-1","parameterCategory":2,"la1":30.2991,"la2":30.254,"lo1":-89.0895,"lo2":-89.0444,"dy":0.0017,"dx":0.0017,"nx":28,"ny":28,"refTime":"2025-03-20T03:00:00:Z","depth":"2","parameterNumber":2,"parameterNumberName":"U-component_of_CURRENTS"},"data":[0,0,0,0,0,0,0,0,0,0,0,0,0,0,0,0,0,0,0,0,0,0,0,0,0,0,0,0,0,0,0,0,0,0,0,0,0,0,0,0,0,0,0,0,0,0,0,0,0,0,0,0,0,0,0,0,0,0,0.3078,0.3079,0,0.3022,0.302,0.3018,0.2934,0.2934,0.2934,0.2935,0.2756,0.2751,0.2747,0,0,0,0,0,0,0,0,0,0,0,0,0,0.2965,0.2967,0.3078,0.3079,0.308,0.3022,0.302,0.3017,0.2934,0.2934,0.2934,0.2935,0.2758,0.2752,0.2746,0,0,0,0,0,0,0,0,0,0,0,0,0,0.2955,0.2968,0.3078,0.3045,0.3043,0.3023,0.302,0.3017,0.2934,0.2934,0.2935,0.2935,0.276,0.2753,0.2745,0.2693,0,0,0.2723,0.2719,0,0,0,0,0,0,0,0,0.2956,0.2957,0.3049,0.3048,0.3045,0.3001,0.2916,0.2909,0.2934,0.2956,0.2935,0.2935,0.2839,0.2825,0.2789,0.2685,0.2677,0.2722,0.2717,0.2714,0.2712,0,0,0,0,0,0,0,0.2957,0.2959,0.3037,0.3051,0.3048,0.2984,0.2982,0.2912,0.288,0.2954,0.2952,0.2975,0.2834,0.2796,0.2784,0.2675,0.2722,0.2716,0.2711,0.2708,0.2629,0.2631,0,0,0,0,0,0,0.3009,0.296,0.304,0.3038,0.3021,0.2988,0.2985,0.3,0.2883,0.2872,0.2975,0.2972,0.2809,0.2793,0.2778,0.2759,0.2714,0.2707,0.2703,0.2627,0.2629,0.2632,0,0,0,0,0,0,0.3006,0.3016,0.3042,0.3012,0.3013,0.2992,0.3008,0.2999,0.2975,0.2904,0.2886,0.2965,0.2809,0.2788,0.2715,0.275,0.2704,0.2697,0.2624,0.2627,0.2631,0.269,0,0,0,0,0,0,0.3003,0.3015,0.3025,0.3016,0.3018,0.3031,0.301,0.2999,0.2998,0.2992,0.2889,0.2872,0.2807,0.2727,0.2708,0.2739,0.2692,0.2621,0.2625,0.2629,0.2685,0.2695,0.2704,0,0,0,0,0,0.2999,0.3008,0.3026,0.3036,0.3039,0.3033,0.3024,0.2998,0.2998,0.2976,0.2912,0.2876,0.2744,0.272,0.2698,0.2728,0.2619,0.2624,0.2629,0.2681,0.2693,0.2704,0,0,0,0,0,0,0.2953,0.3003,0.3021,0.3043,0.3049,0.3026,0.301,0.3011,0.2943,0.2935,0.2861,0.2838,0.2801,0.276,0.2737,0.273,0.2694,0.2695,0.2742,0.2752,0.2761,0.281,0.2685,0,0,0,0,0,0.2962,0.2986,0.3017,0.3035,0.304,0.3032,0.3026,0.3019,0.2979,0.295,0.2883,0.2835,0.2804,0.2772,0.2721,0.2685,0.2706,0.2711,0.272,0.2728,0.276,0.2846,0.2866,0.2649,0.2649,0.2649,0,0,0.2957,0.2986,0.3002,0.3029,0.3023,0.3007,0.3021,0.3021,0.3017,0.294,0.2878,0.2846,0.2803,0.2769,0.2755,0.2736,0.2792,0.2735,0.2741,0.2769,0.2854,0.2875,0.2894,0.2653,0.2652,0.2652,0,0,0.2929,0.2978,0.2971,0.2978,0.3,0.2999,0.3012,0.2995,0.2996,0.2951,0.2924,0.2919,0.2822,0.2822,0.2811,0.2848,0.2838,0.2845,0.2919,0.3002,0.302,0.3037,0.305,0.3068,0.285,0.285,0.2851,0,0.2915,0.2935,0.2964,0.2947,0.298,0.3,0.3003,0.2988,0.295,0.3001,0.2939,0.2924,0.2861,0.2908,0.2912,0.2869,0.2896,0.2868,0.3014,0.3032,0.3048,0.3058,0.3077,0.2854,0.2854,0.2853,0.2853,0,0.2887,0.2894,0.2891,0.2895,0.291,0.293,0.2953,0.2964,0.2981,0.3009,0.3063,0.2988,0.3004,0.2992,0.2939,0.305,0.3021,0.3012,0.2983,0.3074,0.3077,0.3096,0.2859,0.2858,0.2857,0.2856,0,0,0.2889,0.2881,0.2881,0.2896,0.2917,0.2936,0.2957,0.3041,0.3116,0.3086,0.3195,0.3143,0.3168,0.316,0.3128,0.3184,0.3274,0.3146,0.3149,0.3154,0.3423,0.3451,0.3472,0.33,0.3305,0.3308,0.3363,0,0.2871,0.2855,0.287,0.2875,0.2881,0.2948,0.2981,0.306,0.3123,0.3208,0.3258,0.3299,0.3216,0.3231,0.328,0.3281,0.3334,0.3258,0.3341,0.3343,0.3355,0.3501,0.309,0.3113,0.3381,0.3384,0.3387,0,0.2822,0.2853,0.2855,0.2928,0.2947,0.2958,0.3119,0.3152,0.3299,0.336,0.345,0.3469,0.3534,0.3452,0.3523,0.348,0.3468,0.3462,0.3465,0.3496,0.341,0.3077,0.3137,0.3417,0.3415,0.3413,0.3411,0,0.2811,0.2835,0.2866,0.2884,0.2953,0.3019,0.3086,0.3221,0.3302,0.3469,0.3543,0.3638,0.3649,0.37,0.3641,0.3606,0.3725,0.3673,0.369,0.3687,0.3361,0.3326,0.3773,0.3773,0.3773,0.3773,0.3773,0,0.2783,0.2801,0.2869,0.2891,0.3003,0.3041,0.3183,0.3272,0.3407,0.3515,0.3613,0.3686,0.3717,0.3763,0.3736,0.377,0.3798,0.3754,0.3745,0.3367,0.3334,0.3617,0.3598,0.3775,0.3775,0.3774,0.3774,0,0.2713,0.2737,0.279,0.2919,0.2971,0.305,0.3215,0.3291,0.3431,0.3565,0.3613,0.3731,0.3809,0.3833,0.3887,0.3866,0.3912,0.391,0.3439,0.3381,0.3786,0.3769,0.3976,0.3978,0.398,0.3982,0.3983,0,0.267,0.2682,0.2821,0.2861,0.2918,0.3053,0.3126,0.3288,0.3355,0.3574,0.3608,0.3752,0.3835,0.3952,0.3863,0.3874,0.3971,0.3604,0.3509,0.3857,0.3827,0.3806,0.3788,0.3041,0.3034,0.3029,0.3025,0,0.2643,0.2679,0.274,0.2821,0.2895,0.3002,0.3116,0.3174,0.3337,0.3454,0.3586,0.3695,0.3774,0.3615,0.3662,0.362,0.3585,0.3512,0.3998,0.3108,0.2997,0.296,0.2967,0.2978,0.2983,0.2986,0.2989,0.299,0.2633,0.2652,0.27,0.2784,0.2835,0.2875,0.2923,0.2988,0.3082,0.3104,0.3333,0.3312,0.3375,0.3211,0.3175,0.3123,0.3381,0.3259,0.3265,0.3278,0.3217,0.3122,0.3108,0.3113,0.3117,0.3121,0.3125,0,0.2562,0.2591,0.2656,0.2699,0.2671,0.2761,0.2837,0.2805,0.28,0.2784,0.2813,0.2575,0.2527,0.2631,0.2442,0.2564,0.2412,0.2545,0.2267,0.2317,0.236,0.2242,0.1879,0.1876,0.1873,0.187,0,0,0.2519,0.2486,0.252,0.2489,0.2522,0.2455,0.2461,0.2362,0.2314,0.2167,0.2035,0.2113,0.2402,0.1977,0.2037,0.1923,0.2076,0.1851,0.2833,0.254,0.2578,0.2758,0.2634,0,0,0,0,0]},{"header":{"parameterUnit":"m.s-1","parameterCategory":2,"la1":30.2991,"la2":30.254,"lo1":-89.0895,"lo2":-89.0444,"dy":0.0017,"dx":0.0017,"nx":28,"ny":28,"refTime":"2025-03-20T03:00:00:Z","depth":"2","parameterNumber":3,"parameterNumberName":"V-component_of_CURRENTS"},"data":[0,0,0,0,0,0,0,0,0,0,0,0,0,0,0,0,0,0,0,0,0,0,0,0,0,0,0,0,0,0,0,0,0,0,0,0,0,0,0,0,0,0,0,0,0,0,0,0,0,0,0,0,0,0,0,0,0,0,-0.0538,-0.0539,0,-0.0527,-0.0526,-0.0525,-0.0539,-0.054,-0.0542,-0.0543,-0.0496,-0.0493,-0.0491,0,0,0,0,0,0,0,0,0,0,0,0,0,-0.0473,-0.0474,-0.0538,-0.0539,-0.0539,-0.0527,-0.0526,-0.0525,-0.0539,-0.054,-0.0542,-0.0544,-0.0496,-0.0494,-0.0491,0,0,0,0,0,0,0,0,0,0,0,0,0,-0.0477,-0.0475,-0.0538,-0.0551,-0.0553,-0.0528,-0.0526,-0.0525,-0.0538,-0.054,-0.0542,-0.0544,-0.0497,-0.0494,-0.049,-0.0427,0,0,-0.0479,-0.0477,0,0,0,0,0,0,0,0,-0.0477,-0.0479,-0.0549,-0.055,-0.0553,-0.0545,-0.0487,-0.0494,-0.0538,-0.0534,-0.0543,-0.0545,-0.0513,-0.0508,-0.0489,-0.0425,-0.0423,-0.0478,-0.0476,-0.0474,-0.0473,0,0,0,0,0,0,0,-0.0477,-0.0479,-0.0524,-0.0549,-0.0552,-0.0526,-0.0528,-0.0487,-0.0505,-0.0535,-0.0538,-0.0551,-0.0513,-0.0493,-0.0488,-0.0422,-0.0478,-0.0475,-0.0473,-0.0471,-0.0419,-0.042,0,0,0,0,0,0,-0.05,-0.0479,-0.0525,-0.0525,-0.0529,-0.0526,-0.0529,-0.0538,-0.0506,-0.0506,-0.0549,-0.0552,-0.0498,-0.0493,-0.0487,-0.0448,-0.0474,-0.0471,-0.0469,-0.0419,-0.042,-0.0421,0,0,0,0,0,0,-0.0498,-0.0504,-0.0525,-0.0509,-0.0511,-0.0527,-0.0536,-0.0537,-0.0525,-0.0519,-0.0517,-0.054,-0.0499,-0.0492,-0.0452,-0.0445,-0.0469,-0.0466,-0.0418,-0.0419,-0.042,-0.0346,0,0,0,0,0,0,-0.0496,-0.0503,-0.0503,-0.0511,-0.0514,-0.0497,-0.0535,-0.0535,-0.0534,-0.0537,-0.051,-0.0507,-0.05,-0.0458,-0.0448,-0.044,-0.0463,-0.0416,-0.0418,-0.042,-0.0347,-0.0344,-0.0342,0,0,0,0,0,-0.0494,-0.0482,-0.0502,-0.0508,-0.0518,-0.0497,-0.0492,-0.0505,-0.0532,-0.0505,-0.0502,-0.0509,-0.0464,-0.0453,-0.0442,-0.0433,-0.0416,-0.0418,-0.042,-0.0348,-0.0345,-0.0342,0,0,0,0,0,0,-0.0446,-0.0483,-0.0506,-0.0505,-0.0501,-0.0502,-0.0478,-0.05,-0.0474,-0.0474,-0.0482,-0.0477,-0.0449,-0.0455,-0.0444,-0.0435,-0.0455,-0.0455,-0.0405,-0.0402,-0.0399,-0.0384,-0.046,0,0,0,0,0,-0.0441,-0.0446,-0.0469,-0.0465,-0.0458,-0.0469,-0.0462,-0.0469,-0.046,-0.0452,-0.0442,-0.0446,-0.0446,-0.0434,-0.0422,-0.0385,-0.0404,-0.0391,-0.0388,-0.0386,-0.0373,-0.0388,-0.0384,-0.0427,-0.0427,-0.0427,0,0,-0.0427,-0.0445,-0.045,-0.0456,-0.0447,-0.041,-0.0465,-0.0439,-0.0422,-0.0447,-0.0401,-0.0417,-0.0436,-0.0407,-0.0399,-0.0409,-0.039,-0.0388,-0.0385,-0.0373,-0.0389,-0.0385,-0.0381,-0.0428,-0.0428,-0.0428,0,0,-0.0366,-0.0405,-0.037,-0.0361,-0.0354,-0.036,-0.0357,-0.035,-0.0357,-0.0323,-0.0359,-0.0368,-0.0344,-0.0362,-0.0372,-0.0348,-0.0373,-0.0368,-0.0329,-0.0344,-0.034,-0.0336,-0.0368,-0.0367,-0.0368,-0.0368,-0.0368,0,-0.0342,-0.0316,-0.0351,-0.0301,-0.0295,-0.0337,-0.0284,-0.0287,-0.0274,-0.0279,-0.0301,-0.0308,-0.0325,-0.0319,-0.0332,-0.0337,-0.0357,-0.0329,-0.0336,-0.0333,-0.033,-0.0364,-0.0364,-0.0364,-0.0365,-0.0365,-0.0365,0,-0.0258,-0.0224,-0.0195,-0.0163,-0.0151,-0.0115,-0.0137,-0.0121,-0.0153,-0.0177,-0.0181,-0.0206,-0.0217,-0.0247,-0.0279,-0.0283,-0.0308,-0.0324,-0.0331,-0.0321,-0.0358,-0.036,-0.036,-0.0361,-0.0362,-0.0363,0,0,-0.0223,-0.0153,-0.0139,-0.0095,-0.0084,-0.0059,-0.0032,-0.003,-0.0008,-0.0042,-0.0028,-0.0079,-0.0119,-0.0137,-0.0186,-0.0218,-0.0237,-0.0265,-0.0267,-0.0274,-0.028,-0.0328,-0.0335,-0.0248,-0.0248,-0.0247,-0.0318,0,-0.0141,-0.0027,-0.0029,0.0075,0.0135,0.0099,0.0128,0.0118,0.0097,0.0108,0.0018,0.0021,-0.0072,-0.0072,-0.0121,-0.0201,-0.0236,-0.0217,-0.031,-0.0313,-0.0337,-0.0337,-0.0294,-0.0355,-0.0319,-0.032,-0.032,0,-0.0034,0.0012,0.0123,0.02,0.0219,0.0257,0.0286,0.0315,0.029,0.0272,0.0236,0.0172,0.0104,0.0036,-0.0096,-0.0078,-0.0172,-0.0246,-0.025,-0.0316,-0.0363,-0.0361,-0.0359,-0.0323,-0.0323,-0.0323,-0.0322,0,0.0031,0.0139,0.0219,0.024,0.0302,0.0329,0.0354,0.0359,0.0397,0.0383,0.04,0.0305,0.0276,0.0143,-0.0048,-0.006,-0.0192,-0.0221,-0.0352,-0.0357,-0.035,-0.0355,-0.0295,-0.0295,-0.0295,-0.0295,-0.0295,0,0.0129,0.0206,0.0257,0.0296,0.039,0.0404,0.0493,0.0512,0.0545,0.0607,0.0491,0.0514,0.0302,0.0185,0.0008,-0.0187,-0.015,-0.0341,-0.0372,-0.0328,-0.033,-0.0324,-0.0327,-0.0297,-0.0297,-0.0296,-0.0296,0,0.0226,0.0255,0.0366,0.0418,0.0439,0.0513,0.0596,0.0678,0.0677,0.0764,0.0762,0.067,0.0512,0.0279,0.0067,-0.0101,-0.0287,-0.0361,-0.0312,-0.0337,-0.0456,-0.0454,-0.0501,-0.0503,-0.0505,-0.0507,-0.0508,0,0.0287,0.0352,0.045,0.052,0.0548,0.0638,0.0718,0.0752,0.0842,0.0863,0.0923,0.0785,0.0714,0.0356,0.0049,-0.0258,-0.0313,-0.0432,-0.0452,-0.0448,-0.0474,-0.047,-0.0465,-0.0421,-0.0421,-0.0422,-0.0422,0,0.0395,0.0435,0.0518,0.0641,0.0738,0.0848,0.0953,0.1035,0.1087,0.1134,0.1171,0.1107,0.0769,0.0463,0.0025,-0.0183,-0.0386,-0.045,-0.0436,-0.0381,-0.038,-0.0403,-0.04,-0.0425,-0.0425,-0.0425,-0.0425,-0.0424,0.0483,0.0569,0.0671,0.0786,0.0906,0.1038,0.1153,0.1255,0.1376,0.1458,0.1364,0.1267,0.0918,0.0364,-0.0007,-0.0405,-0.0388,-0.0529,-0.0525,-0.052,-0.0504,-0.0507,-0.0574,-0.0574,-0.0575,-0.0575,-0.0575,0,0.059,0.0672,0.08,0.0952,0.1103,0.1125,0.1305,0.1422,0.1572,0.16,0.1595,0.1246,0.0858,0.043,-0.0137,-0.0473,-0.0479,-0.0605,-0.0531,-0.0525,-0.0521,-0.0503,-0.0573,-0.0574,-0.0575,-0.0576,0,0,0.0656,0.0804,0.085,0.1081,0.1193,0.1398,0.1512,0.1666,0.1731,0.178,0.1696,0.1518,0.0992,0.0579,0.0109,-0.0229,-0.0293,-0.0298,-0.026,-0.0109,-0.01,-0.0441,-0.0403,0,0,0,0,0]}],[{"header":{"parameterUnit":"m.s-1","parameterCategory":2,"la1":30.2991,"la2":30.254,"lo1":-89.0895,"lo2":-89.0444,"dy":0.0017,"dx":0.0017,"nx":28,"ny":28,"refTime":"2025-03-20T03:00:00:Z","depth":"4","parameterNumber":2,"parameterNumberName":"U-component_of_CURRENTS"},"data":[0,0,0,0,0,0,0,0,0,0,0,0,0,0,0,0,0,0,0,0,0,0,0,0,0,0,0,0,0,0,0,0,0,0,0,0,0,0,0,0,0,0,0,0,0,0,0,0,0,0,0,0,0,0,0,0,0,0,0.0957,0.0957,0,0.1066,0.1068,0.107,0.1153,0.1154,0.1154,0.1154,0.135,0.1355,0.136,0,0,0,0,0,0,0,0,0,0,0,0,0,0.092,0.0921,0.0957,0.0957,0.0958,0.1066,0.1068,0.107,0.1153,0.1154,0.1154,0.1154,0.1348,0.1354,0.136,0,0,0,0,0,0,0,0,0,0,0,0,0,0.0981,0.0921,0.0957,0.1007,0.1012,0.1065,0.1068,0.1071,0.1153,0.1154,0.1154,0.1154,0.1346,0.1354,0.1361,0.1407,0,0,0.1385,0.1388,0,0,0,0,0,0,0,0,0.0977,0.0983,0.0999,0.1003,0.1009,0.1089,0.1127,0.1185,0.1153,0.1108,0.1154,0.1154,0.1266,0.128,0.131,0.1416,0.1424,0.1386,0.139,0.1394,0.1396,0,0,0,0,0,0,0,0.0973,0.0979,0.1008,0.0999,0.1006,0.1058,0.1066,0.1139,0.1193,0.1112,0.1116,0.1116,0.127,0.1302,0.1315,0.1427,0.1385,0.1392,0.1397,0.14,0.1626,0.1628,0,0,0,0,0,0,0.0938,0.0974,0.1004,0.101,0.0984,0.1057,0.1067,0.107,0.119,0.1205,0.1116,0.1119,0.1289,0.1306,0.1323,0.1483,0.1393,0.1401,0.1405,0.1625,0.1627,0.1628,0,0,0,0,0,0,0.0937,0.094,0.1,0.0989,0.0999,0.1056,0.1059,0.1072,0.113,0.119,0.1209,0.1162,0.129,0.1312,0.1449,0.1487,0.1404,0.1411,0.1623,0.1626,0.1628,0.1741,0,0,0,0,0,0,0.0936,0.0939,0.0954,0.0986,0.0998,0.1045,0.1059,0.1074,0.1123,0.1131,0.1236,0.1253,0.1292,0.1438,0.1457,0.1497,0.1417,0.1622,0.1624,0.1627,0.1735,0.1746,0.1756,0,0,0,0,0,0.0934,0.096,0.0954,0.0958,0.1008,0.1045,0.1059,0.1104,0.1126,0.1158,0.1259,0.1251,0.1464,0.1448,0.1469,0.1512,0.162,0.1624,0.1627,0.173,0.1744,0.1756,0,0,0,0,0,0,0.0961,0.097,0.0965,0.0994,0.1015,0.1057,0.11,0.1119,0.1223,0.1252,0.1311,0.1337,0.1456,0.1468,0.1447,0.1575,0.1524,0.1531,0.1595,0.1608,0.1618,0.1605,0.1424,0,0,0,0,0,0.0964,0.0984,0.0991,0.1016,0.103,0.1067,0.1096,0.1123,0.1198,0.1243,0.1338,0.1416,0.1479,0.1535,0.1599,0.17,0.171,0.1722,0.1733,0.1742,0.1742,0.1799,0.1816,0.1638,0.1638,0.1638,0,0,0.0973,0.0987,0.0995,0.1023,0.1053,0.1103,0.109,0.1143,0.1198,0.1251,0.1411,0.1472,0.1514,0.1627,0.1676,0.1651,0.1804,0.1746,0.1754,0.1748,0.1804,0.1822,0.1837,0.1641,0.164,0.164,0,0,0.102,0.1022,0.1061,0.109,0.1129,0.1149,0.1165,0.1239,0.1284,0.1415,0.1459,0.1555,0.1685,0.1726,0.1751,0.185,0.1856,0.1858,0.1917,0.1974,0.199,0.2003,0.2072,0.2091,0.1865,0.1865,0.1866,0,0.1038,0.108,0.108,0.1139,0.1165,0.1173,0.1226,0.1276,0.14,0.1449,0.1477,0.1684,0.1718,0.1826,0.1857,0.1875,0.1919,0.1876,0.1991,0.2004,0.2016,0.2083,0.2102,0.1871,0.1871,0.187,0.1869,0,0.1097,0.116,0.1193,0.1257,0.1286,0.1335,0.137,0.1445,0.1502,0.1557,0.1702,0.1792,0.1906,0.1916,0.1924,0.2024,0.2035,0.2,0.1965,0.2041,0.2107,0.2125,0.188,0.1877,0.1876,0.1874,0,0,0.1079,0.1204,0.1221,0.127,0.1348,0.1368,0.1462,0.1525,0.1605,0.1728,0.1841,0.1948,0.2011,0.204,0.2077,0.2118,0.2242,0.2107,0.2107,0.2186,0.2405,0.2209,0.2209,0.2248,0.2251,0.2253,0.243,0,0.1129,0.1227,0.1289,0.14,0.1445,0.1494,0.1588,0.1654,0.1727,0.1858,0.1916,0.2054,0.205,0.2137,0.2184,0.2239,0.229,0.2198,0.2308,0.2311,0.2136,0.2222,0.2263,0.2443,0.2447,0.245,0.2452,0,0.1185,0.1226,0.1325,0.1461,0.1489,0.1573,0.1675,0.1776,0.1916,0.1993,0.2125,0.2182,0.2312,0.2267,0.2427,0.2387,0.2401,0.2416,0.2423,0.2204,0.2146,0.234,0.2485,0.2482,0.248,0.2477,0.2476,0,0.1132,0.1278,0.1339,0.138,0.1524,0.1595,0.1689,0.1826,0.1921,0.2102,0.2189,0.2348,0.2465,0.2517,0.2551,0.2521,0.2682,0.2638,0.2476,0.2465,0.2541,0.2524,0.2705,0.2705,0.2704,0.2704,0.2703,0,0.1152,0.122,0.1332,0.1365,0.1472,0.1595,0.1738,0.1866,0.2051,0.2183,0.2288,0.2395,0.2531,0.2614,0.2618,0.2618,0.2752,0.2501,0.2493,0.2588,0.2574,0.2557,0.2537,0.2711,0.2709,0.2708,0.2707,0,0.1117,0.1194,0.1298,0.1428,0.147,0.1566,0.1764,0.188,0.2068,0.2241,0.2309,0.2494,0.2612,0.2679,0.2784,0.2702,0.2706,0.265,0.2784,0.2778,0.2445,0.2429,0.2523,0.2517,0.2513,0.2509,0.2505,0,0.11,0.1149,0.1304,0.1371,0.1448,0.1576,0.1684,0.1885,0.2017,0.2269,0.2361,0.2511,0.2593,0.2604,0.2687,0.27,0.2629,0.2641,0.2495,0.2442,0.2426,0.2418,0.2409,0.2498,0.2497,0.2495,0.2494,0,0.1068,0.1162,0.1233,0.1345,0.1463,0.1552,0.1724,0.1786,0.2041,0.2206,0.2321,0.2337,0.2451,0.2504,0.2523,0.2513,0.2647,0.2591,0.2599,0.2461,0.2413,0.24,0.2396,0.2478,0.248,0.2482,0.2483,0,0.1068,0.111,0.1223,0.1308,0.1445,0.1502,0.1581,0.1715,0.1836,0.2122,0.2156,0.2281,0.2448,0.2408,0.2431,0.2406,0.235,0.226,0.2284,0.2304,0.2137,0.2037,0.1994,0,0,0,0,0,0.1061,0.1076,0.1159,0.1246,0.1379,0.1424,0.1607,0.1699,0.1907,0.1943,0.204,0.211,0.2126,0.2202,0.2125,0.2323,0.2357,0.2224,0.2265,0.2387,0.2406,0.2222,0,0,0,0,0,0,0.1057,0.1132,0.1119,0.1155,0.1196,0.1299,0.1393,0.1532,0.1566,0.1784,0.1807,0.1965,0.2017,0.2126,0.2072,0.2095,0.2074,0.2321,0.2315,0.2376,0.2394,0.2409,0.2226,0,0,0,0,0]},{"header":{"parameterUnit":"m.s-1","parameterCategory":2,"la1":30.2991,"la2":30.254,"lo1":-89.0895,"lo2":-89.0444,"dy":0.0017,"dx":0.0017,"nx":28,"ny":28,"refTime":"2025-03-20T03:00:00:Z","depth":"4","parameterNumber":3,"parameterNumberName":"V-component_of_CURRENTS"},"data":[0,0,0,0,0,0,0,0,0,0,0,0,0,0,0,0,0,0,0,0,0,0,0,0,0,0,0,0,0,0,0,0,0,0,0,0,0,0,0,0,0,0,0,0,0,0,0,0,0,0,0,0,0,0,0,0,0,0,0.0482,0.0483,0,0.0415,0.0413,0.0411,0.0336,0.0336,0.0336,0.0336,0.0193,0.019,0.0186,0,0,0,0,0,0,0,0,0,0,0,0,0,0.0455,0.0456,0.0482,0.0483,0.0483,0.0415,0.0413,0.0411,0.0336,0.0336,0.0336,0.0336,0.0195,0.019,0.0186,0,0,0,0,0,0,0,0,0,0,0,0,0,0.0425,0.0456,0.0482,0.0446,0.0442,0.0415,0.0413,0.041,0.0336,0.0336,0.0336,0.0336,0.0196,0.0191,0.0185,0.0153,0,0,0.0168,0.0166,0,0,0,0,0,0,0,0,0.0427,0.0424,0.0451,0.0448,0.0445,0.0394,0.0352,0.0324,0.0336,0.0364,0.0336,0.0336,0.0261,0.025,0.0222,0.0146,0.014,0.0168,0.0164,0.0162,0.016,0,0,0,0,0,0,0,0.0429,0.0426,0.0444,0.0451,0.0448,0.0402,0.0397,0.0345,0.0304,0.0362,0.0359,0.037,0.0257,0.0228,0.0219,0.0138,0.0168,0.0163,0.0159,0.0157,0.0053,0.0053,0,0,0,0,0,0,0.0465,0.0429,0.0446,0.0443,0.0448,0.0404,0.0398,0.0401,0.0306,0.0295,0.037,0.0367,0.0238,0.0225,0.0213,0.0165,0.0162,0.0157,0.0153,0.0052,0.0053,0.0053,0,0,0,0,0,0,0.0465,0.0467,0.0449,0.0444,0.044,0.0406,0.0409,0.04,0.0372,0.0315,0.03,0.0354,0.0237,0.0221,0.0152,0.016,0.0154,0.0149,0.0051,0.0052,0.0053,0.0072,0,0,0,0,0,0,0.0464,0.0467,0.0474,0.0446,0.0442,0.0437,0.041,0.0399,0.0385,0.0379,0.0297,0.0283,0.0236,0.016,0.0146,0.0152,0.0145,0.0051,0.0052,0.0053,0.0071,0.0073,0.0076,0,0,0,0,0,0.0463,0.0474,0.0474,0.0477,0.0455,0.0438,0.043,0.0397,0.0385,0.0371,0.0305,0.0286,0.0159,0.0154,0.0138,0.0143,0.005,0.0051,0.0053,0.0069,0.0073,0.0076,0,0,0,0,0,0,0.0462,0.0468,0.0467,0.0478,0.0466,0.043,0.0417,0.0403,0.034,0.0333,0.0266,0.0247,0.0193,0.0169,0.0167,0.0122,0.0113,0.0111,0.0131,0.0134,0.0136,0.0159,0.014,0,0,0,0,0,0.0472,0.0482,0.0476,0.0486,0.0479,0.0449,0.0438,0.0425,0.0378,0.0351,0.0287,0.0235,0.0187,0.016,0.0108,0.0071,0.0045,0.0075,0.0078,0.008,0.0091,0.0053,0.0053,0.0058,0.0057,0.0057,0,0,0.0482,0.0483,0.0492,0.0487,0.0467,0.0459,0.0437,0.043,0.0426,0.0346,0.0288,0.0228,0.0177,0.0128,0.0108,0.0108,0.0062,0.0082,0.0083,0.0093,0.0054,0.0054,0.0053,0.0058,0.0058,0.0058,0,0,0.0494,0.0498,0.0502,0.0492,0.0486,0.0472,0.0476,0.0437,0.0417,0.0368,0.0313,0.0255,0.0177,0.0137,0.0113,0.0105,0.007,0.0103,0.0134,0.0097,0.0096,0.0095,0.0046,0.0041,0.0113,0.0113,0.0113,0,0.0502,0.0514,0.05,0.0493,0.0499,0.0481,0.0487,0.0463,0.0406,0.0392,0.0359,0.0238,0.0187,0.0144,0.0137,0.0111,0.0078,0.0121,0.0099,0.0098,0.0096,0.0046,0.004,0.0114,0.0114,0.0114,0.0113,0,0.0516,0.0521,0.0519,0.0512,0.0508,0.0515,0.0501,0.0478,0.0454,0.043,0.0371,0.028,0.022,0.0197,0.0157,0.013,0.0105,0.0097,0.0088,0.0097,0.0044,0.0037,0.0115,0.0115,0.0115,0.0114,0,0,0.054,0.0535,0.0534,0.0541,0.053,0.0532,0.0524,0.0519,0.0521,0.0448,0.0429,0.0335,0.0291,0.0262,0.0204,0.0165,0.0111,0.013,0.0128,0.0077,0.0015,0.0019,0.0012,0.0093,0.0092,0.0091,-0.0024,0,0.0556,0.0576,0.0562,0.0577,0.0586,0.0569,0.0565,0.0556,0.0533,0.0499,0.0432,0.0384,0.0321,0.0287,0.0237,0.0137,0.0096,0.0143,0.002,0.0016,0.0015,0.0006,0.0089,-0.003,-0.0032,-0.0033,-0.0034,0,0.0562,0.0587,0.0619,0.0627,0.0627,0.0634,0.0643,0.0639,0.0602,0.0573,0.0518,0.046,0.0379,0.0335,0.018,0.0208,0.0123,0.0047,0.0041,0.0039,0.0009,-0.0035,-0.0047,-0.0046,-0.0045,-0.0044,-0.0043,0,0.0596,0.0612,0.0655,0.0659,0.0668,0.0679,0.0687,0.0668,0.0676,0.0631,0.0618,0.0512,0.0458,0.0336,0.0177,0.0178,0.0005,-0.0008,-0.0085,-0.0086,-0.0066,-0.0063,-0.0095,-0.0095,-0.0095,-0.0095,-0.0094,0,0.0612,0.0637,0.0681,0.0704,0.0758,0.0736,0.0779,0.0759,0.0742,0.0755,0.067,0.0641,0.0458,0.0339,0.0195,0.0026,0.0021,-0.0081,-0.0111,-0.0057,-0.0052,-0.0073,-0.0069,-0.0099,-0.0098,-0.0097,-0.0096,0,0.0619,0.0647,0.0693,0.0742,0.0773,0.0808,0.0856,0.0873,0.0849,0.086,0.0849,0.073,0.0573,0.0384,0.017,0.006,-0.0106,-0.0157,-0.0097,-0.0122,-0.018,-0.0174,-0.0253,-0.0253,-0.0254,-0.0255,-0.0255,0,0.0625,0.0657,0.0744,0.079,0.0818,0.0886,0.0931,0.0932,0.0955,0.0916,0.0918,0.0783,0.0687,0.0382,0.0179,-0.0096,-0.0126,-0.0214,-0.0187,-0.0173,-0.0195,-0.0187,-0.018,-0.0256,-0.0256,-0.0256,-0.0256,0,0.0646,0.0676,0.0724,0.0837,0.0903,0.0983,0.105,0.1072,0.1065,0.1047,0.0975,0.082,0.0643,0.0398,0.018,-0.0013,-0.0163,-0.0221,-0.0221,-0.0196,-0.0177,-0.0197,-0.0189,-0.0258,-0.0258,-0.0258,-0.0258,0,0.0663,0.0701,0.0779,0.0874,0.0958,0.1047,0.1083,0.1109,0.1127,0.1075,0.1051,0.0853,0.0731,0.0442,0.0242,0.0047,0.0005,-0.005,-0.006,-0.006,0.0032,0.0086,0.0061,0,0,0,0,0,0.0677,0.0734,0.082,0.0921,0.0997,0.1068,0.1144,0.1165,0.1171,0.113,0.109,0.0926,0.0628,0.0496,0.0304,0.023,-0.0031,-0.0001,-0.01,-0.027,-0.0267,-0.0191,0,0,0,0,0,0,0.0687,0.0763,0.0823,0.0946,0.102,0.1125,0.1178,0.1188,0.1166,0.1132,0.0975,0.0889,0.0598,0.0741,0.0305,0.0245,0.0158,-0.0144,-0.0148,-0.0271,-0.0269,-0.0267,-0.0188,0,0,0,0,0]}]]